• In Hungary
  • List of Countries
  • For 7 days
  • Water Temperature
  • Satellite Maps
  • Weather Map
  • News
  • Weather Widgets
  • user-avatar
    Login

    Hourly Weather Zdanow

    Today, 21 September, Friday

    Time Temperature Precipitation Wind Pressure Humidity
    00:00 +18°C° 0 mm 1 mps 745 mmHg 69%
    01:00 +18°C° 0 mm 1 mps 745 mmHg 71%
    02:00 +18°C° 0 mm 1 mps 745 mmHg 73%
    03:00 +16°C° 0 mm 1 mps 745 mmHg 74%
    04:00 +16°C° 0 mm 1 mps 745 mmHg 76%
    05:00 +16°C° 0 mm 1 mps 745 mmHg 78%
    06:00 +16°C° 0 mm 2 mps 745 mmHg 76%
    07:00 +17°C° 0 mm 2 mps 745 mmHg 75%
    08:00 +18°C° 0 mm 2 mps 745 mmHg 74%
    09:00 +20°C° 0 mm 3 mps 745 mmHg 68%
    10:00 +22°C° 0 mm 3 mps 745 mmHg 62%
    11:00 +25°C° 0 mm 3 mps 744 mmHg 56%
    12:00 +26°C° 0 mm 4 mps 744 mmHg 53%
    13:00 +27°C° 0 mm 4 mps 744 mmHg 50%
    14:00 +27°C° 0 mm 4 mps 743 mmHg 47%
    15:00 +27°C° 0 mm 4 mps 743 mmHg 50%
    16:00 +26°C° 0 mm 3 mps 742 mmHg 53%
    17:00 +26°C° 0 mm 3 mps 742 mmHg 55%
    18:00 +24°C° 0 mm 3 mps 742 mmHg 59%
    19:00 +22°C° 0 mm 3 mps 742 mmHg 63%
    20:00 +20°C° 0 mm 4 mps 742 mmHg 67%
    21:00 +20°C° 0 mm 4 mps 741 mmHg 67%
    22:00 +19°C° 0 mm 4 mps 741 mmHg 66%
    23:00 +19°C° 0 mm 4 mps 741 mmHg 66%

    Tomorrow, 22 September, Saturday

    Time Temperature Precipitation Wind Pressure Humidity
    00:00 +19°C° 0 mm 4 mps 741 mmHg 65%
    01:00 +18°C° 0 mm 4 mps 741 mmHg 65%
    02:00 +18°C° 0 mm 4 mps 740 mmHg 65%
    03:00 +17°C° 0 mm 5 mps 741 mmHg 63%
    04:00 +17°C° 0 mm 5 mps 741 mmHg 62%
    05:00 +17°C° 0 mm 6 mps 741 mmHg 61%
    06:00 +16°C° 0.2 mm 5 mps 742 mmHg 66%
    07:00 +14°C° 0.2 mm 5 mps 743 mmHg 71%
    08:00 +13°C° 0.2 mm 5 mps 744 mmHg 76%
    09:00 +13°C° 0.2 mm 4 mps 744 mmHg 77%
    10:00 +12°C° 0.2 mm 4 mps 745 mmHg 78%
    11:00 +12°C° 0.2 mm 3 mps 746 mmHg 79%
    12:00 +12°C° 0.9 mm 3 mps 746 mmHg 81%
    13:00 +12°C° 0.9 mm 3 mps 746 mmHg 83%
    14:00 +12°C° 0.9 mm 3 mps 746 mmHg 85%
    15:00 +12°C° 0.3 mm 3 mps 745 mmHg 84%
    16:00 +12°C° 0.3 mm 3 mps 745 mmHg 82%
    17:00 +12°C° 0.3 mm 3 mps 745 mmHg 81%
    18:00 +11°C° 0 mm 3 mps 745 mmHg 84%
    19:00 +10°C° 0 mm 3 mps 745 mmHg 87%
    20:00 +10°C° 0 mm 4 mps 745 mmHg 91%
    21:00 +8°C° 0 mm 4 mps 745 mmHg 90%
    22:00 +9°C° 0 mm 3 mps 745 mmHg 88%
    23:00 +9°C° 0 mm 3 mps 745 mmHg 87%

    Day after tomorrow, 23 September, Sunday

    Time Temperature Precipitation Wind Pressure Humidity
    00:00 +9°C° 0 mm 3 mps 745 mmHg 87%
    01:00 +9°C° 0 mm 3 mps 745 mmHg 86%
    02:00 +8°C° 0 mm 3 mps 745 mmHg 85%
    03:00 +8°C° 0 mm 3 mps 745 mmHg 84%
    04:00 +8°C° 0 mm 3 mps 745 mmHg 84%
    05:00 +7°C° 0 mm 4 mps 745 mmHg 83%
    06:00 +8°C° 0 mm 4 mps 746 mmHg 80%
    07:00 +8°C° 0 mm 4 mps 746 mmHg 78%
    08:00 +10°C° 0 mm 4 mps 746 mmHg 76%
    09:00 +12°C° 0 mm 5 mps 746 mmHg 69%
    10:00 +13°C° 0 mm 6 mps 746 mmHg 61%
    11:00 +15°C° 0 mm 6 mps 746 mmHg 54%
    12:00 +15°C° 0 mm 6 mps 745 mmHg 51%
    13:00 +16°C° 0 mm 6 mps 745 mmHg 48%
    14:00 +17°C° 0 mm 6 mps 745 mmHg 45%
    15:00 +16°C° 0 mm 5 mps 745 mmHg 49%
    16:00 +17°C° 0 mm 4 mps 744 mmHg 52%
    17:00 +16°C° 0 mm 3 mps 744 mmHg 56%
    18:00 +16°C° 0 mm 3 mps 744 mmHg 60%
    19:00 +14°C° 0 mm 3 mps 743 mmHg 63%
    20:00 +13°C° 0 mm 3 mps 743 mmHg 67%
    21:00 +13°C° 0 mm 3 mps 742 mmHg 69%
    22:00 +12°C° 0 mm 3 mps 742 mmHg 71%
    23:00 +12°C° 0 mm 3 mps 741 mmHg 74%

    24 September, Monday

    Time Temperature Precipitation Wind Pressure Humidity
    00:00 +12°C° 0.1 mm 4 mps 739 mmHg 74%
    01:00 +12°C° 0.1 mm 4 mps 738 mmHg 74%
    02:00 +12°C° 0.1 mm 5 mps 737 mmHg 74%
    03:00 +13°C° 3.4 mm 6 mps 735 mmHg 78%
    04:00 +12°C° 3.4 mm 7 mps 734 mmHg 83%
    05:00 +12°C° 3.4 mm 7 mps 732 mmHg 87%
    06:00 +12°C° 3.3 mm 8 mps 731 mmHg 87%
    07:00 +13°C° 3.3 mm 9 mps 729 mmHg 86%
    08:00 +13°C° 3.3 mm 10 mps 728 mmHg 86%
    09:00 +13°C° 1.1 mm 11 mps 728 mmHg 82%
    10:00 +14°C° 1.1 mm 12 mps 728 mmHg 77%
    11:00 +14°C° 1.1 mm 13 mps 728 mmHg 73%
    12:00 +12°C° 0.1 mm 13 mps 730 mmHg 73%
    13:00 +10°C° 0.1 mm 14 mps 732 mmHg 73%
    14:00 +8°C° 0.1 mm 14 mps 734 mmHg 72%
    15:00 +8°C° 0.1 mm 13 mps 736 mmHg 70%
    16:00 +9°C° 0.1 mm 11 mps 737 mmHg 67%
    17:00 +9°C° 0.1 mm 10 mps 739 mmHg 64%
    18:00 +10°C° 0.1 mm 9 mps 740 mmHg 67%
    19:00 +8°C° 0.1 mm 9 mps 741 mmHg 69%
    20:00 +9°C° 0.1 mm 8 mps 742 mmHg 71%
    21:00 +7°C° 0.1 mm 8 mps 742 mmHg 72%
    22:00 +7°C° 0.1 mm 8 mps 743 mmHg 72%
    23:00 +7°C° 0.1 mm 8 mps 744 mmHg 73%

    25 September, Tuesday

    Time Temperature Precipitation Wind Pressure Humidity
    00:00 +6°C° 0 mm 8 mps 745 mmHg 73%
    01:00 +5°C° 0 mm 7 mps 745 mmHg 73%
    02:00 +4°C° 0 mm 7 mps 746 mmHg 74%
    03:00 +4°C° 0 mm 7 mps 746 mmHg 73%
    04:00 +4°C° 0 mm 7 mps 747 mmHg 72%
    05:00 +4°C° 0 mm 6 mps 747 mmHg 71%
    06:00 +4°C° 0 mm 7 mps 748 mmHg 69%
    07:00 +4°C° 0 mm 7 mps 748 mmHg 68%
    08:00 +5°C° 0 mm 8 mps 749 mmHg 67%
    09:00 +6°C° 0 mm 8 mps 750 mmHg 64%
    10:00 +7°C° 0 mm 8 mps 750 mmHg 61%
    11:00 +9°C° 0 mm 8 mps 751 mmHg 58%
    12:00 +10°C° 0.1 mm 8 mps 751 mmHg 57%
    13:00 +10°C° 0.1 mm 8 mps 751 mmHg 57%
    14:00 +10°C° 0.1 mm 8 mps 751 mmHg 57%
    15:00 +10°C° 0.2 mm 7 mps 752 mmHg 58%
    16:00 +10°C° 0.2 mm 6 mps 752 mmHg 59%
    17:00 +9°C° 0.2 mm 6 mps 752 mmHg 60%
    18:00 +8°C° 0 mm 5 mps 752 mmHg 63%
    19:00 +7°C° 0 mm 4 mps 753 mmHg 65%
    20:00 +6°C° 0 mm 4 mps 753 mmHg 67%
    21:00 +6°C° 0 mm 4 mps 753 mmHg 67%
    22:00 +6°C° 0 mm 4 mps 753 mmHg 66%
    23:00 +6°C° 0 mm 5 mps 753 mmHg 65%

    26 September, Wednesday

    Time Temperature Precipitation Wind Pressure Humidity
    00:00 +6°C° 0 mm 5 mps 752 mmHg 65%
    01:00 +5°C° 0 mm 6 mps 752 mmHg 65%
    02:00 +7°C° 0 mm 6 mps 751 mmHg 65%
    03:00 +5°C° 0.9 mm 7 mps 750 mmHg 71%
    04:00 +5°C° 0.9 mm 8 mps 750 mmHg 77%
    05:00 +5°C° 0.9 mm 9 mps 749 mmHg 83%
    06:00 +5°C° 1.3 mm 8 mps 749 mmHg 85%
    07:00 +6°C° 1.3 mm 8 mps 749 mmHg 86%
    08:00 +6°C° 1.3 mm 8 mps 748 mmHg 88%
    09:00 +7°C° 0.1 mm 8 mps 749 mmHg 82%
    10:00 +7°C° 0.1 mm 8 mps 750 mmHg 76%
    11:00 +9°C° 0.1 mm 8 mps 751 mmHg 70%
    12:00 +9°C° 0 mm 7 mps 751 mmHg 69%
    13:00 +9°C° 0 mm 7 mps 751 mmHg 68%
    14:00 +10°C° 0 mm 6 mps 752 mmHg 67%
    15:00 +10°C° 0 mm 5 mps 752 mmHg 66%
    16:00 +11°C° 0 mm 4 mps 752 mmHg 66%
    17:00 +11°C° 0 mm 3 mps 753 mmHg 65%
    18:00 +10°C° 0 mm 3 mps 753 mmHg 69%
    19:00 +9°C° 0 mm 2 mps 754 mmHg 73%
    20:00 +8°C° 0 mm 1 mps 754 mmHg 77%
    21:00 +8°C° 0 mm 1 mps 754 mmHg 77%
    22:00 +8°C° 0 mm 1 mps 755 mmHg 77%
    23:00 +7°C° 0 mm 1 mps 755 mmHg 78%
    Show more